Regional Weather Roundup
Issued by NWS Sioux Falls, SD

Home | Current Version | Previous Version | Text Only | Print | Product List | Glossary On
Versions: 1 2 3 4 5 6 7 8 9 10 11 12 13 14 15 16 17 18 19 20 21 22 23 24 25 26 27 28 29 30 31 32 33 34 35 36 37 38 39 40 41 42 43 44 45 46 47 48 49 50
000
ASUS43 KFSD 020010
RWRFSD

WEATHER ROUNDUP FOR SE SOUTH DAKOTA/SW MINNESOTA/NW IOWA
NATIONAL WEATHER SERVICE SIOUX FALLS SD
600 PM CST SUN FEB 01 2015

NOTE: "FAIR" INDICATES FEW OR NO CLOUDS BELOW 12,000 FEET WITH NO
SIGNIFICANT WEATHER AND OR OBSTRUCTIONS TO VISIBILITY.


SDZ038>040-050-052>070-020100-
SOUTHEAST SOUTH DAKOTA

CITY           SKY/WX    TMP DP  RH WIND       PRES   REMARKS
CHAMBERLAIN    CLEAR      2  -6  69 NW9       30.38R WCI -13
6HR MIN TEMP:   1; 6HR MAX TEMP:   4;

HURON          CLEAR      2  -7  66 N10       30.38F WCI -14
6HR MIN TEMP:   2; 6HR MAX TEMP:   6; 6HR PCP: TRACE;

MADISON        FAIR       5   1  85 N13       30.28R WCI -12
MITCHELL       CLEAR      3  -6  66 N13       30.38S WCI -14
6HR MIN TEMP:   2; 6HR MAX TEMP:   5; 6HR PCP: TRACE;

SIOUX FALLS    PTCLDY     6   0  76 N16       30.28R WCI -12
6HR MIN TEMP:   6; 6HR MAX TEMP:   9; 6HR PCP: TRACE;

WINNER         FAIR       2  -5  72 NW7       30.35S WCI -11
YANKTON        PTCLDY     3  -2  78 NW17      30.35R WCI -17
$$

MNZ071-072-080-081-089-090-097-098-020100-
SOUTHWEST MINNESOTA

CITY           SKY/WX    TMP DP  RH WIND       PRES   REMARKS
FAIRMONT       PTCLDY    12   3  67 N16       30.18R WCI  -4
JACKSON        PTCLDY    12   3  67 N9        30.19S WCI   0
LUVERNE        CLEAR     10   1  67 N15G23    30.26S WCI  -6
MARSHALL       PTCLDY     7  -2  66 N22G28    30.30R WCI -14
6HR MIN TEMP:   7; 6HR MAX TEMP:  12;

MONTEVIDEO     CLEAR      9   0  66 N16       30.32R WCI  -9
PIPESTONE      CLEAR      7   0  72 N10G18    30.24S WCI  -8
TRACY          PTCLDY    10   2  72 N16       30.26S WCI  -7
WINDOM         PTCLDY    10   3  72 N16       30.21S WCI  -7
WORTHINGTON    MOCLDY    21   1  42 N23G29    30.22R WCI   5
$$

IAZ001>003-012>014-020>022-031-032-NEZ013-014-SDZ071-020100-
NORTHWEST IOWA

CITY           SKY/WX    TMP DP  RH WIND       PRES   REMARKS
CHEROKEE       CLOUDY    12   7  80 N16G22    30.22R WCI  -4
DENISON        LGT SNOW  12   9  85 N20       30.17R WCI  -6
ESTHERVILLE    PTCLDY    10   4  76 N20       30.19R WCI  -9
LE MARS        CLOUDY     9   5  85 N16G24    30.28R WCI  -9
ORANGE CITY    CLOUDY     9   3  78 N10       30.24R WCI  -6
SHELDON        CLOUDY     9   3  78 N18       30.22R WCI -10
SIOUX CITY     LGT SNOW   8   3  80 NW20      30.29R WCI -11
6HR MIN TEMP:   9; 6HR MAX TEMP:  13; 6HR PCP: TRACE;

SPENCER        PTCLDY    12   4  70 N18       30.20R WCI  -6
6HR MIN TEMP:  12; 6HR MAX TEMP:  15; 6HR PCP: TRACE;

STORM LAKE     CLOUDY    10   7  85 N18G28    30.18R WCI  -8
$$

ABBREVIATIONS USED IN REMARKS
   TC - TEMPERATURE IN CELSIUS
  WCI - WIND CHILL INDEX
   HX - HEAT INDEX
  VSB - VISIBILITY



USA.gov is the U.S. government's official web portal to all federal, state and local government web resources and services.